Weather History for Findlay, OH

Change the Weather History Date:

Tuesday, July 23, 2013

  Actual Average Record
Temperature  
Mean Temperature 74 °F -  
Max Temperature 86 °F 82 °F 96 °F (2010)
Min Temperature 62 °F 62 °F 53 °F (1954)
Cooling Degree Days 9    
Growing Degree Days 24 (Base 50)    
Moisture  
Dew Point 65 °F    
Average Humidity 84    
Maximum Humidity 100    
Minimum Humidity 53    
Precipitation  
Precipitation 0.01 in - - ()
Sea Level Pressure  
Sea Level Pressure 29.76 in    
Wind  
Wind Speed 4 mph (WSW)    
Max Wind Speed 16 mph    
Max Gust Speed -    
Visibility 5 miles    
Events Fog    
Averages and records for this station are not official NWS values.
T = Trace of Precipitation, MM = Missing Value Source: NWS Daily Summary

Daily Weather History Graph

Daily Weather History Graph

Search for Another Location

Airport:

Trip Planner

Search our weather history database for the weather conditions in past years. The results will help you decide how hot, cold, wet, or windy it might be!

Date:

Astronomy

Jul. 23, 2013 Rise Set
Actual Time 6:22 AM EDT 8:59 PM EDT
Civil Twilight 5:50 AM EDT 9:31 PM EDT
Nautical Twilight 5:10 AM EDT 10:10 PM EDT
Astronomical Twilight 4:25 AM EDT 10:55 PM EDT
Moon 9:25 PM EDT (7/23) 7:30 AM EDT (7/23)
Length of Visible Light 15h 40m
Length of Day
14h 36m
Full, 99% of the Moon is Illuminated
Jul 23
Full
Jul 29
Last Quarter
Aug 6
New
Aug 14
First Quarter
Aug 20
Full

Hourly Weather History & Observations

Time (EDT) Temp. Heat Index Dew Point Humidity Pressure Visibility Wind Dir Wind Speed Gust Speed Precip Events Conditions
12:45 AM 66.2 °F - 64.4 °F 94% 29.82 in 1.5 mi Calm Calm - N/A   Clear
12:50 AM 66.2 °F - 64.4 °F 94% 29.82 in 0.2 mi Calm Calm - N/A Fog Fog
12:53 AM 66.0 °F - 64.9 °F 96% 29.79 in 0.2 mi Calm Calm - N/A Fog Fog
1:02 AM 66.2 °F - 64.4 °F 94% 29.82 in 1.0 mi Calm Calm - N/A   Clear
1:05 AM 66.2 °F - 64.4 °F 94% 29.82 in 4.0 mi Calm Calm - N/A   Clear
1:53 AM 66.0 °F - 64.0 °F 93% 29.79 in 4.0 mi Calm Calm - N/A   Clear
2:09 AM 64.4 °F - 62.6 °F 94% 29.81 in 1.5 mi Calm Calm - N/A   Clear
2:13 AM 64.4 °F - 64.4 °F 100% 29.81 in 0.5 mi Calm Calm - N/A Fog Fog
2:21 AM 64.4 °F - 62.6 °F 94% 29.80 in 0.2 mi Calm Calm - N/A Fog Fog
2:42 AM 62.6 °F - 62.6 °F 100% 29.80 in 0.5 mi Calm Calm - N/A Fog Fog
2:53 AM 63.0 °F - 62.1 °F 97% 29.79 in 0.2 mi Calm Calm - N/A Fog Fog
3:12 AM 64.4 °F - 62.6 °F 94% 29.79 in 0.5 mi Calm Calm - N/A Fog Fog
3:46 AM 62.6 °F - 60.8 °F 94% 29.79 in 0.2 mi Calm Calm - 0.01 in Fog Fog
3:53 AM 62.1 °F - 62.1 °F 100% 29.76 in 0.2 mi SSW 3.5 mph - 0.01 in Fog Fog
4:08 AM 62.6 °F - 62.6 °F 100% 29.78 in 1.0 mi South 3.5 mph - N/A   Mist
4:12 AM 62.6 °F - 62.6 °F 100% 29.78 in 2.5 mi South 3.5 mph - N/A   Scattered Clouds
4:19 AM 62.6 °F - 60.8 °F 94% 29.77 in 4.0 mi South 4.6 mph - N/A   Partly Cloudy
4:53 AM 64.0 °F - 63.0 °F 96% 29.75 in 4.0 mi South 5.8 mph - N/A   Clear
5:53 AM 64.9 °F - 64.0 °F 97% 29.75 in 4.0 mi South 5.8 mph - N/A   Clear
6:53 AM 66.0 °F - 64.9 °F 96% 29.74 in 2.5 mi South 4.6 mph - N/A   Clear
7:05 AM 66.2 °F - 64.4 °F 94% 29.76 in 3.0 mi South 6.9 mph - N/A   Clear
7:53 AM 69.1 °F - 66.9 °F 93% 29.71 in 5.0 mi SSE 8.1 mph - N/A   Clear
8:53 AM 73.0 °F - 70.0 °F 90% 29.75 in 7.0 mi WSW 6.9 mph - N/A   Scattered Clouds
9:53 AM 77.0 °F - 70.0 °F 79% 29.74 in 10.0 mi WSW 6.9 mph - N/A   Scattered Clouds
10:53 AM 79.0 °F - 71.1 °F 77% 29.73 in 10.0 mi WSW 11.5 mph - N/A   Partly Cloudy
11:53 AM 81.0 °F 84.9 °F 71.1 °F 72% 29.74 in 10.0 mi WSW 13.8 mph - N/A   Partly Cloudy
12:53 PM 82.9 °F 86.5 °F 69.1 °F 63% 29.73 in 10.0 mi West 12.7 mph - N/A   Clear
1:53 PM 82.9 °F 84.6 °F 64.9 °F 54% 29.71 in 10.0 mi West 15.0 mph - N/A   Scattered Clouds
2:53 PM 84.9 °F 87.6 °F 66.9 °F 55% 29.70 in 10.0 mi West 13.8 mph - N/A   Clear
3:53 PM 86.0 °F 88.8 °F 66.9 °F 53% 29.68 in 10.0 mi WSW 15.0 mph - N/A   Clear
4:53 PM 84.9 °F 87.1 °F 66.0 °F 53% 29.69 in 10.0 mi West 16.1 mph - N/A   Partly Cloudy
5:53 PM 84.0 °F 86.3 °F 66.0 °F 55% 29.69 in 10.0 mi WNW 15.0 mph - N/A   Clear
6:53 PM 81.0 °F 83.3 °F 66.9 °F 62% 29.69 in 10.0 mi WNW 8.1 mph - N/A   Partly Cloudy
7:53 PM 77.0 °F - 66.9 °F 71% 29.71 in 10.0 mi North 12.7 mph - N/A   Mostly Cloudy
8:53 PM 73.9 °F - 66.0 °F 76% 29.74 in 10.0 mi North 9.2 mph - N/A   Mostly Cloudy
9:53 PM 73.0 °F - 66.0 °F 79% 29.75 in 10.0 mi North 6.9 mph - N/A   Scattered Clouds
10:53 PM 72.0 °F - 66.9 °F 84% 29.78 in 10.0 mi NW 5.8 mph - N/A   Overcast
11:53 PM 70.0 °F - 60.1 °F 71% 29.80 in 10.0 mi NNW 11.5 mph - N/A   Overcast